Location: Newark
(27.9675°N, 86.8869°E)
Time: 13:06:07
(UTC+00:00)

deb Explorer IX - Pass Details

Date: 24 October 2019
Orbit: 546 x 1105 km, 38.8° (Epoch: 20 November)

Event Time Altitude Azimuth Distance (km) Brightness Sun altitude
Rises 11:58:26 0° 294° (WNW) 3,540 ? -5.9°
Reaches altitude 10° 12:00:58 10° 289° (WNW) 2,674 ? -6.4°
Maximum altitude 12:07:17 51° 215° (SW) 1,273 ? -7.8°
Drops below altitude 10° 12:14:14 10° 142° (SE) 2,929 ? -9.3°
Sets 12:17:08 0° 137° (SE) 3,904 ? -9.9°
